Погода в Томске

Погода в Томске : погода сейчас, прогноз погоды и архив. Всё, что Вы хотите узнать о погоде в Томске!

Хотите узнать прогноз погоды в Томске? Тогда Вам сюда: Погода в Томске

Поиск расширенной информации на нашем сайте:

Полезная информация:

Другие новости

Новости СМИ2

Главная страница сайта

Новости сайта

03.07.2017

Напоминаем, что на нашем специализированном сайте Метеоцентр.Азия вы можете получить высокодетализированные автоматические прогнозы погоды по пунктам России, СНГ и мира в авиационном формате (включающие направление и скорость ветра, видимость, явления погоды, количество и форму облачности, нижнюю и верхнюю границу облачности).

Рекомендуем:

Погода в Томске - сегодня

Время (UTC), дата Ветер
(°,м/с) 
Видим.   Явления Облачность Т
(°С)
Тd
(°С)
f(%) Тe
(°С)
Pmin
(гПа)
dP
(гПа)
Po
(мм)
O2
(г/м3)
Тmin Tmax R s Состояние
почвы
09 15.09.19 тихо ()   20000 м  {дождь}  10/6 270 м средняя 
[St|As op]
+12.6 +11.7 94 +16  1012.5  -0.1  747  285           
12 15.09.19 тихо ()   20000 м  {дождь}  8/8 800 м 
[Sc diur, vesp]
+12.9 +11.3 90 +16  1013.7  1.2  748  286    +14.5  0.4     
15 15.09.19 тихо ()   20000 м    8/0 средняя 
[Ac trans]
+9.7 +9 95 +10  1015.7  1.7  749  290           
18 15.09.19 тихо ()   10 км  дымка  10/0 средняя 
[As op]
+9.7 +9.1 96 +10  1016.6  0.9  750  290           
21 15.09.19 тихо ()   2000 м  дымка  10/0 средняя 
[As op]
+9.2 +8.6 96 +9  1017.4  0.8  750  291           
00 16.09.19 тихо ()   2000 м  дымка  10/0 средняя 
[As op]
+7.1 +6.5 96 +7  1018.2  0.6  751  294  +7.1        влажная 
03 16.09.19 120 (ЮВ) 0500 м  туман  10/0 средняя 
[As trans]
+9.9 +9.3 96 +11  1018.4  0.4  751  290  +6.7         
06 16.09.19 160 (Ю) 20000 м  {туман}  3/0 верхняя 
[Ci fib]
+16.2 +13.4 83 +24  1017.5  -0.5  751  283           
09 16.09.19 тихо ()   20000 м    3/3 1000 м 
[Cu hum]
+20.2 +11.8 58 +24  1016  -1.3  750  279           
12 16.09.19 110 (В) 20000 м    ясно 
+16.8 +12.2 74 +22  1015.6  -0.5  749  282    +21.2       
15 16.09.19 110 (В) 20000 м    ясно 
+15.4 +11 75 +20  1015.7  749  284           
18 16.09.19 тихо ()   20000 м    ясно 
+12.4 +11.1 92 +15  1015.7  -0.2  749  287           
21 16.09.19 тихо ()   20000 м    ясно 
+10.4 +9.7 95 +11  1015.1  -0.7  749  289           
00 17.09.19 110 (В) 20000 м    8/0 средняя 
[Ac trans]
+11.7 +10.2 91 +14  1014.7  -0.3  749  287  +10.1        влажная 
03 17.09.19 110 (В) 20000 м    6/0 средняя 
[Ac trans]
+15.6 +10.9 74 +19  1014.1  -0.4  748  283           
06 17.09.19 110 (В) 20000 м    ясно 
+20.7 +10.8 53 +23  1012.5  -1.3  747  278           
09 17.09.19 120 (ЮВ) 20000 м    8/5 600 м средняя 
[Cu med, cong|Ac trans]
+22.7 +8.5 40 +23  1010.9  -1.5  746  276           
12 17.09.19 120 (ЮВ) 20000 м    10/0 средняя, верхняя 
[Ac trans|Ci]
+19.9 +7.9 46 +21  1009.7  -1.3  745  279    +23.2       
15 17.09.19 090 (В) 10 км  слаб. ливневой дождь, в посл. час гроза  10/10 300 м кучево-дожд. 
[Cb cap]
+13.2 +12.1 93 +18  1010.9  0.9  746  284           
18 17.09.19 тихо ()   20000 м  слаб. дождь{гроза, ливн. осадки}  10/0 средняя 
[As op]
+12.3 +11.5 95 +16  1011.7  0.7  746  286           
21 17.09.19 тихо ()   20000 м  {дождь}  10/0 средняя 
[Ac und]
+10.6 +9.9 95 +12  1013.2  1.3  747  288           
00 18.09.19 080 (В) 20000 м  {дождь}  10/0 средняя 
[Ac und]
+9.6 +9 96 +11  1014.3  1.1  748  290  +9.5      влажная 
03 18.09.19 080 (В) 20000 м    10/6 600 м средняя 
[Sc|Ac As]
+11.2 +9.3 88 +12  1015  0.7  749  288           
06 18.09.19 100 (В) 20000 м    3/0 средняя 
[Ac trans]
+17.9 +8.7 55 +19  1014.4  -0.2  749  282           
09 18.09.19 280 (З) 20000 м    6/1 1000 м средняя 
[Cu med, cong|Ac As]
+19.4 +5.8 41 +21  1014.2  -0.1  748  281           
Время (UTC), дата Ветер
(°,м/с) 
Видим.   Явления Облачность Т
(°С)
Тd
(°С)
f(%) Тe
(°С)
Pmin
(гПа)
dP
(гПа)
Po
(мм)
O2
(г/м3)
Тmin Tmax R s Состояние
почвы

Для получения пояснительной информации подведите курсор к названию столбца.

ПОГОДА в Томске - архив

Всё, что Вы хотите узнать о погоде в Томске - удобно и подробно!

Выберите нужную дату (начиная с 1 января 2018* года) и нажмите кнопку "Найти".
Будут отображены архивные сводки погоды по пункту Томск, начиная с указанной даты.


Отображать данные в формате CSV (для использования в таблицах Excel)


Внимание! Наш архив погоды предназначен исключительно для личного некоммерческого использования в познавательных целях. Если Вам необходимы официальные справки о состоянии погоды (для производственных, юридических, коммерческих и т.п. целей), обращайтесь в органы Росгидромета.

*Примечание: данная дата относится к архиву по метеостанциям СССР (Россия, СНГ, Балтия).
Архив по метеостанциям Зарубежной Европы и Азии (кроме Китая) хранится 10 дней, по другим регионам земного шара (Китай, Африка, Америка, Австралия, Океания) - 1 день.

Томск - район местоположения метеостанции


Название, широта, долгота, высота метеостанции:
Томск 56.5°ш. 84.9°д. 139 м над ур. моря [Российская Федерация]

Дополнительная информация

В oтличие oт бoльшинства пoгoдных сайтoв мы публикуем пoдрoбную метеoинфoрмацию в детальнoм прoфессиoнальнoм фoрмате.

Характеристики температуры и влажнoсти вoздуха измеряются на высoте 2 м в тени вдали oт зданий и деревьев.
Скoрoсть ветра измеряется на высoте 10 м (на урoвне рoста челoвека скoрoсть ветра ниже в 1.5-2 раза). Если метеoстанция нахoдится в гoрoде или в лесу, тo скoрoсть ветра занижена на 2-4 м/с пo сравнению с oткрытым местoм. Скoрoсть ветра над акватoриями крупных рек и oзёр, а также на вершинах хoлмoв на 2-5 м/с выше, чем в oбычных услoвиях.
Атмoсфернoе давление в разных тoчках местнoсти мoжет значительнo oтличаться oт давления на метеoстанции, в зависимoсти oт услoвий рельефа (при пoдъёме на 10 м давление пoнижается примернo на 1 мм рт.ст.).